map of BOY home
Great Circle Mapper logo
BOY - Airport
Location
City:  Bobo/Dioulasso, Burkina Faso
ICAO / IATA:DFOO / BOY

Details
Type:Airport (Aerodrome, Airfield)
Use:Public/Civil, International (customs port of entry)
Latitude:1109'36"N (11.160056)
Longitude:419'51"W (-4.330968)
Datum:WGS 1984
Elevation:1511 ft (461 m)
Variation:3.56W (WMM2015 magnetic declination)
0.10 annual change
Runways:1
Longest:10826 × 148 ft (3300 × 45 m), paved

Time
Time Zone:UTC+0
Local Time:

Weather
METAR:DFOO 222100Z 18004KT CAVOK 31/23 Q1013
TAF:DFOO 221700Z 2218/2318 24010KT 9999 FEW020 PROB30
TEMPO 2218/2302 4000 TSRA SCT020 FEW033CB PROB30
TEMPO 2315/2318 TS FEW020 FEW033CB

Related Locations
Nearby:
Farthest:RTA: 12307 mi / 19807 km
Elsee, Rotuma Island, FJ

Find:

   beyond  
but within

Other Information
Maps:
NOTAMs:
Links:
Sources:

  
flag of Burkina Faso   

Sectional Chart

Flight Planning
at skyvector.com

Satellite Image

Google Maps Satellite View

 

Copyright © 2004-2015 Karl L. Swartz. All rights reserved.
The Great Circle Mapper name and logo are trademarks of the Great Circle Mapper.
All other trademarks mentioned herein belong to their respective owners.
Please see credits for attibutions and further copyright information.

  Follow gcmap on Facebook Follow gcmap on Twitter Follow gcmap on Google+

hCard Microformat

Geo Microformat